Regional Weather Roundup
Issued by NWS

Home | Current Version | Previous Version | Text Only | Print | Product List | Glossary Off
Versions: 1 2 3 4 5 6 7 8 9 10 11 12 13 14 15 16 17 18 19 20 21 22 23 24 25 26 27 28 29 30 31 32 33 34 35 36 37 38 39 40 41 42 43 44 45 46 47 48 49 50

491
ASUS43 KIND 301909
RWRIN

WEATHER ROUNDUP FOR INDIANA
NATIONAL WEATHER SERVICE INDIANAPOLIS IN
300 PM EDT SUN APR 30 2017

NOTE: "FAIR" INDICATES FEW OR NO CLOUDS BELOW 12,000 FEET WITH NO
SIGNIFICANT WEATHER AND/OR OBSTRUCTIONS TO VISIBILITY.

* - STATION DOES NOT REPORT WEATHER SUCH AS PRECIPITATION OR FOG.

+ - STATION NOT QUALITY CONTROLLED BY THE NATIONAL WEATHER SERVICE.
    USE DATA WITH CAUTION...ESPECIALLY DEWPOINT AND RELATIVE
    HUMIDITY OBSERVATIONS.

INZ001>003-010>013-019-020-302000-
NORTHWEST INDIANA

CITY           SKY/WX    TMP DP  RH WIND       PRES   REMARKS
GARY /AIRPORT/ CLOUDY    46  46 100 N7G20     29.82R FOG
KNOX *+        CLOUDY    70  45  40 SW12      29.78F
LA PORTE +     CLOUDY    59  57  92 W7        29.79F FOG
MICHIGAN CITY+ CLOUDY    50  50 100 W3        29.81R FOG
MONTICELLO +   LGT RAIN  65  63  94 S5        29.77F
RENSSELAER +   DRIZZLE   64  61  88 SW5       29.78S
VALPARAISO     CLOUDY    58  56  93 VRB5      29.80F FOG

$$

LMZ046-743>745-302000-
SOUTHERN LAKE MICHIGAN

STATION/POSITION TIME  TEMP    WIND        PRES    WAVE
                       AIR SEA DIR/SP/G            HT
                 (UTC) (F)     (DEG/KT/KT) (MB)    (FT)
BURNS HARBOR     1840   45     360/  5/  6 1010.2R
MICHIGAN CITY    1840   46     360/  5/  5   N/A
5NW MICH CITY    1900   44 49                N/A     3

$$

INZ004-005-014>016-021>024-302000-
NORTH CENTRAL INDIANA

CITY           SKY/WX    TMP DP  RH WIND       PRES   REMARKS
ELKHART        CLOUDY    66  61  82 S9        29.80R
GOSHEN         LGT RAIN  65  61  87 S10       29.81S FOG
LOGANSPORT +   LGT RAIN  64  63  94 S12       29.81F
PERU/GRISSOM   CLOUDY    67  67 100 S13G23    29.81S
ROCHESTER +    LGT RAIN  68  64  88 S7        29.82S
SOUTH BEND     CLOUDY    67  61  81 SW16      29.79R
WARSAW +       HVY RAIN  63  63 100 S3        29.82S

$$

INZ006>009-017-018-025>027-302000-
NORTHEAST INDIANA

CITY           SKY/WX    TMP DP  RH WIND       PRES   REMARKS
ANGOLA *+      CLOUDY    57  48  72 SE5       29.84R
AUBURN +       LGT RAIN  63  61  94 CALM      29.84S
FORT WAYNE     CLOUDY    70  62  76 SW13      29.85R
HUNTINGTON +   CLOUDY    69  63  81 S13G20    29.81F
KENDALLVILLE + RAIN      61  61 100 SE6       29.84S

$$

INZ028-029-035-036-043>045-051>053-302000-
WEST CENTRAL INDIANA

CITY           SKY/WX    TMP DP  RH WIND       PRES   REMARKS
CRAWFORDSVL +  LGT RAIN  63  63 100 S12       29.80F
GREENCASTLE +  LGT RAIN  63  63 100 S7        29.82F
LAFAYETTE      LGT RAIN  65  63  93 S8        29.79S
TERRE HAUTE    CLOUDY    66  64  93 S13       29.79F

$$

INZ030>032-037>040-046>048-054>057-064-065-302000-
CENTRAL INDIANA

CITY           SKY/WX    TMP DP  RH WIND       PRES   REMARKS
CP ATTERBURY + HVY RAIN  64  63  94 W6G18     29.85R VSB 3/4
COLUMBUS       CLOUDY    75  64  69 S22G29    29.82F
FISHERS *+     CLOUDY    64  64 100 S7        29.84F
FRANKFORT +    RAIN      68  65  89 SW16      29.84S
GREENWOOD *+   CLOUDY    66  63  91 SW5       29.85F
INDIANAPOLIS   LGT RAIN  65  63  93 SW10      29.84R FOG
-EAGLE CREEK   LGT RAIN  66  63  90 SW6       29.83F
KOKOMO +       CLOUDY    68  64  87 S15G24    29.84S
MARION +       CLOUDY    66  63  88 S15G21    29.84F FOG
MT COMFORT *+  CLOUDY    64  63  94 W10       29.86S
SHELBYVILLE    LGT RAIN  67  62  84 W12       29.84R
ZIONSVILLE +   RAIN      65  63  93 S10       29.85F

$$

INZ033-034-041-042-049-050-058-059-302000-
EAST CENTRAL INDIANA

CITY           SKY/WX    TMP DP  RH WIND       PRES   REMARKS
MUNCIE         RAIN      69  64  84 W8        29.85R
RICHMOND +     CLOUDY    72  66  83 S17       29.87F

$$

INZ060-061-067>069-081>083-085>088-302000-
SOUTHWEST INDIANA

CITY           SKY/WX    TMP DP  RH WIND       PRES   REMARKS
EVANSVILLE       N/A    N/A N/A N/A MISG      29.77F
WASHINGTON +   CLOUDY    64  63  94 SE3       29.82F

$$

INZ062-063-066-070>080-084-089>092-302000-
SOUTH CENTRAL AND SOUTHEAST INDIANA

CITY           SKY/WX    TMP DP  RH WIND       PRES   REMARKS
BLOOMINGTON    TSTM      64  61  90 VRB3      29.83F VSB 3/4
MADISON *+     CLOUDY    77  63  61 S14G21    29.87F
NORTH VERNON + CLOUDY    75  64  69 S22G28    29.85F
SEYMOUR +      CLOUDY    79  66  65 S14G23    29.82F

$$





USA.gov is the U.S. government's official web portal to all federal, state and local government web resources and services.